TimeEDT,TemperatureF,Dew PointF,Humidity,Sea Level PressureIn,VisibilityMPH,Wind Direction,Wind SpeedMPH,Gust SpeedMPH,PrecipitationIn,Events,Conditions,WindDirDegrees,DateUTC
12:09 AM,33.8,28.4,81,29.95,3.0,NW,10.4,-,0.00,Snow,Light Snow,310,2013-03-26 04:09:00
12:53 AM,33.1,28.0,82,29.98,4.0,NW,10.4,-,0.00,Snow,Light Snow,310,2013-03-26 04:53:00
1:53 AM,32.0,27.0,82,29.99,10.0,NW,8.1,-,0.00,,Overcast,310,2013-03-26 05:53:00
2:53 AM,32.0,27.0,82,30.00,10.0,NW,9.2,-,N/A,,Overcast,310,2013-03-26 06:53:00
3:53 AM,32.0,28.0,85,30.01,9.0,NW,9.2,-,0.00,,Overcast,310,2013-03-26 07:53:00
4:27 AM,32.0,28.4,87,29.99,10.0,NW,9.2,-,0.00,,Overcast,310,2013-03-26 08:27:00
4:53 AM,32.0,28.0,85,30.01,9.0,NW,9.2,-,0.00,,Overcast,310,2013-03-26 08:53:00
5:53 AM,32.0,28.0,85,30.03,8.0,NW,8.1,-,N/A,,Overcast,310,2013-03-26 09:53:00
6:53 AM,32.0,28.0,85,30.04,9.0,WNW,8.1,-,0.00,,Overcast,300,2013-03-26 10:53:00
7:33 AM,32.0,28.4,87,30.04,1.8,WNW,9.2,-,0.00,Snow,Light Snow,300,2013-03-26 11:33:00
7:48 AM,32.0,28.4,87,30.05,0.8,NW,9.2,-,0.00,Snow,Light Snow,310,2013-03-26 11:48:00
7:53 AM,32.0,28.0,85,30.07,0.5,NW,9.2,-,0.00,Fog-Snow,Snow,310,2013-03-26 11:53:00
8:05 AM,32.0,28.4,87,30.06,2.0,WNW,6.9,-,0.00,Snow,Light Snow,300,2013-03-26 12:05:00
8:13 AM,32.0,28.4,87,30.06,7.0,NW,9.2,-,0.00,,Overcast,310,2013-03-26 12:13:00
8:53 AM,32.0,28.9,88,30.09,10.0,NW,9.2,-,0.00,,Overcast,310,2013-03-26 12:53:00
9:53 AM,33.1,28.9,85,30.11,10.0,NW,10.4,-,N/A,,Overcast,310,2013-03-26 13:53:00
10:53 AM,34.0,28.9,82,30.13,10.0,NW,10.4,-,N/A,,Overcast,320,2013-03-26 14:53:00
11:00 AM,33.8,28.4,81,30.11,10.0,NW,10.4,-,N/A,,Overcast,310,2013-03-26 15:00:00
11:53 AM,35.1,28.9,78,30.14,10.0,NW,11.5,-,N/A,,Overcast,310,2013-03-26 15:53:00
12:53 PM,36.0,28.0,73,30.14,10.0,WNW,10.4,-,N/A,,Overcast,300,2013-03-26 16:53:00
1:08 PM,35.6,28.4,75,30.13,10.0,WNW,11.5,-,N/A,,Overcast,290,2013-03-26 17:08:00
2:53 PM,37.0,28.0,70,30.15,10.0,WNW,12.7,-,N/A,,Overcast,300,2013-03-26 18:53:00
3:37 PM,37.4,28.4,70,30.14,10.0,NW,12.7,-,N/A,,Overcast,310,2013-03-26 19:37:00
3:53 PM,37.0,28.0,70,30.15,10.0,WNW,17.3,-,N/A,,Overcast,290,2013-03-26 19:53:00
4:25 PM,37.4,26.6,65,30.14,10.0,WNW,13.8,23.0,N/A,,Overcast,300,2013-03-26 20:25:00
4:53 PM,37.0,27.0,67,30.16,10.0,WNW,15.0,-,N/A,,Overcast,290,2013-03-26 20:53:00
5:53 PM,37.0,27.0,67,30.17,10.0,WNW,13.8,-,N/A,,Scattered Clouds,300,2013-03-26 21:53:00
6:53 PM,37.0,26.1,65,30.19,10.0,WNW,12.7,-,N/A,,Mostly Cloudy,290,2013-03-26 22:53:00
7:53 PM,34.0,27.0,75,30.20,10.0,West,10.4,-,N/A,,Overcast,280,2013-03-26 23:53:00
8:53 PM,35.1,26.1,70,30.22,10.0,WNW,11.5,-,N/A,,Overcast,290,2013-03-27 00:53:00
9:53 PM,34.0,26.1,73,30.23,10.0,West,10.4,-,N/A,,Overcast,280,2013-03-27 01:53:00
10:53 PM,34.0,26.1,73,30.23,10.0,West,9.2,-,N/A,,Overcast,280,2013-03-27 02:53:00
11:53 PM,34.0,26.1,73,30.23,10.0,West,11.5,-,N/A,,Overcast,280,2013-03-27 03:53:00